Regional Weather Roundup
Issued by NWS Pendleton, OR

Home | Current Version | Previous Version | Text Only | Print | Product List | Glossary On
Versions: 1 2 3 4 5 6 7 8 9 10 11 12 13 14 15 16 17 18 19 20 21 22 23 24 25 26 27 28 29 30 31 32 33 34 35 36 37 38 39 40 41 42 43 44 45 46 47 48 49 50
000
ASUS46 KPDT 291225
RWRPDT
PENDLETON REGIONAL WEATHER ROUNDUP
NATIONAL WEATHER SERVICE PENDLETON OREGON
500 AM PDT FRI MAY 29 2015

NOTE: FAIR INDICATES FEW OR NO CLOUDS BELOW 12,000 FEET WITH NO
SIGNIFICANT WEATHER AND/OR OBSTRUCTIONS TO VISIBILITY.

# INDICATES UNOFFICIAL STATION AND DATA

WAZ520-291310-
EAST SLOPES OF WASHINGTON CASCADES

CITY            SKY/WX      TMP DP  RH  WIND    PRES   REMARKS
#BULLFROG 2SW   N/A         51  50  96  S2      27.64S
#BUMPING DAM    N/A         50  N/A N/A N3      N/A
#CLE ELUM HS    N/A         52  49  89  CALM    29.97S
#CLE ELUM LAKE  N/A         57  50  77  CALM    29.91S
#CLIFFDEL 2NW   N/A         50  49  96  NW2     N/A
#GLENWOOD       N/A         49  48  96  CALM    29.93F
#NELSON         N/A         51  49  93  CALM    29.96S
#NELSON 3SW     N/A         52  48  86  CALM    30.12S
#NILE           N/A         51  50  96  CALM    29.27S
#RONALD 2NW     N/A         56  10  16  NE1     29.91S
#SNOWDEN        N/A         52  43  71  CALM    N/A
#TEANAWAY 4NE   N/A         52  51  96  SW3     N/A
#TROUT LAKE 1NE N/A         54  50  86  CALM    29.93S
$$

WAZ521-291310-
SIMCOE HIGHLANDS

CITY            SKY/WX      TMP DP  RH  WIND    PRES   REMARKS
#BICKLETON HS   N/A         58  38  47  CALM    N/A
#CENTERVILLE 4W N/A         60  49  67  N1      29.74S
#CENTERVILLE 1SWN/A         50  43  77  CALM    29.88F
#GOLDENDALE     N/A         56  45  66  E2      N/A
#GOLDENDALE 5WNWN/A         54  46  74  CALM    29.90S
#GOODNOE HILLS  N/A         62  46  56  W2      N/A
#LYLE 6NE       N/A         60  51  72  CALM    29.89R
$$

WAZ026-291310-
KITTITAS VALLEY

CITY            SKY/WX      TMP DP  RH  WIND    PRES   REMARKS
ELLENSBURG AP   CLOUDY      57  52  83  E3      30.01S
6HR MIN TEMP:   57; 6HR MAX TEMP:   69;

YTC-OPS AREA    N/A         60  48  64  N10     30.02F
6HR MIN TEMP:   60; 6HR MAX TEMP:   69;

#ELLENSBURG CWU N/A         59  53  80  CALM    29.89S
#ELLENSBURG 3NE N/A         55  51  86  CALM    30.01S
#KITTITAS 3S    N/A         51  49  93  CALM    29.93S
#THORP 6N       N/A         55  50  83  N2      29.94F
$$

WAZ027-291310-
YAKIMA VALLEY

CITY            SKY/WX      TMP DP  RH  WIND    PRES   REMARKS
SUNNYSIDE AP    MOCLDY      55  49  80  CALM    29.95F
YAKIMA AIRPORT  MOCLDY      60  52  75  W8      29.98S
6HR MIN TEMP:   58; 6HR MAX TEMP:   73;

#DONALD 2NE     N/A         64  47  54  NW2     28.82S
#GRANDVIEW      N/A         58  51  77  CALM    29.94S
#MABTON         N/A         59  53  80  E1      29.95F
#NACHES 2SW     N/A         60  54  81  W6      30.01F
#OUTLOOK DOT    N/A         N/A N/A N/A CALM    N/A
#SELAH 8E       N/A         54  47  77  SE3     N/A
#TERRACE HTS    N/A         58  53  83  CALM    29.89S
#TOPPENISH      N/A         63  53  70  W2      29.84S
#WAPATO 4NE     N/A         64  47  54  NW2     28.82S
#WEST VALLEY    N/A         60  52  75  CALM    29.91S
#W YAKIMA       N/A         61  54  78  N3      29.92S
#WHITE SWAN 5E  N/A         55  51  86  W1      29.93S
$$

WAZ028-291310-
LOWER COLUMBIA BASIN...WASHINGTON

CITY            SKY/WX      TMP DP  RH  WIND    PRES   REMARKS
PASCO           PTCLDY      55  51  86  NW5     29.96R
6HR MIN TEMP:   54; 6HR MAX TEMP:   66;

RICHLAND AWOS   PTCLDY      59  55  87  W5      29.96R
#BASIN CITY 5SW N/A         59  54  83  N3      29.96S
#BENTON CITY    N/A         59  52  78  CALM    29.84R
#CONNELL 5N     N/A         59  51  75  NE2     29.92S
#CONNELL 5NW    N/A         59  52  78  E6      29.88F
#ELTOPIA        N/A         59  52  78  N1      29.89S
#ELTOPIA 6NW    N/A         59  52  78  N3      28.93S
#KAHLOTUS       N/A         58  51  77  S3      29.93S
#KENNEWICK      N/A         51  50  96  S2      27.64S
#KENNEWICK 3S   N/A         61  51  70  CALM    29.92S
#PATERSON       N/A         60  53  78  E1      29.91S
#PROSSER        N/A         64  48  56  SW1     29.91F
#SAGEMOOR 2W    N/A         58  52  80  CALM    29.78R
#TOUCHET 2S     N/A         49  46  89  CALM    29.92R
#WEST PASCO     N/A         60  54  81  CALM    29.94S
$$

WAZ029-291310-
FOOTHILLS OF THE BLUES...WASHINGTON

CITY            SKY/WX      TMP DP  RH  WIND    PRES   REMARKS
WALLA WALLA AP  PTCLDY      63  50  62  CALM    29.96R
6HR MIN TEMP:   61; 6HR MAX TEMP:   72;

#DAYTON SCHOOL  N/A         55  45  69  CALM    29.99R
#LOWDEN 2SE     N/A         52  50  93  CALM    29.92R
#PLEASANT VIEW 1N/A         59  51  75  VRB1    29.95S
#PRESCOTT       N/A         54  50  86  CALM    29.91R
#SUDBURY        N/A         52  N/A N/A CALM    N/A
#WHITMAN COLLEGEN/A         62  53  72  CALM    29.96R
#WAITSBURG 8N   N/A         51  32  48  CALM    29.82S
#WALLA WALLA U  N/A         59  53  80  CALM    29.91R
#WHITMAN MISSIONN/A         53  50  89  CALM    29.93R
$$

WAZ030-291310-
BLUE MOUNTAINS...WASHINGTON

CITY            SKY/WX      TMP DP  RH  WIND    PRES   REMARKS
#DIXIE 5SE      N/A         68  41  37  CALM    29.96S
$$

ORZ009-041-WAZ024-291310-
COLUMBIA RIVER GORGE

CITY            SKY/WX      TMP DP  RH  WIND    PRES   REMARKS
HOOD RIVER AP   MOCLDY      57  52  83  CALM    29.97S
THE DALLES AP   PTCLDY      65  54  68  N10     29.94S
6HR MIN TEMP:   64; 6HR MAX TEMP:   76;

#ARLINGTON AIRPON/A         65  45  48  W3      29.80S
#MOSIER 1S      N/A         60  46  60  CALM    29.94S
#MURDOCK        N/A         65  58  78  NW3     29.95R

$$

ORZ510-291310-
NORTH CENTRAL OREGON

CITY            SKY/WX      TMP DP  RH  WIND    PRES   REMARKS
#DUFUR 9E       N/A         66  50  56  SW1     29.93F
#GRASS VALLEY 1SN/A         58  48  69  CALM    29.91F
#MAUPIN SCHOOL  N/A         62  48  60  CALM    29.97F
#MORO SCHOOL    N/A         56  52  86  CALM    29.99S
#TYGH VALLEY 2NEN/A         58  51  77  N1      29.90F
#WAPANITIA AIRPON/A         57  49  75  CALM    29.91F
#WASCO AIRPORT  N/A         59  48  67  CALM    N/A
#WASCO 5NE      N/A         60  51  72  SW1     29.91S
$$

ORZ511-291310-
CENTRAL OREGON

CITY            SKY/WX      TMP DP  RH  WIND    PRES   REMARKS
BEND AIRPORT    CLEAR       52  45  77  SW7     30.05S
MADRAS AIRPORT  PTCLDY      54  48  80  SE6     30.02F
PRINEVILLE AP   CLEAR       46  43  89  CALM    30.04S
REDMOND AIRPORT CLEAR       48  43  83  E3      30.03S
6HR MIN TEMP:   48; 6HR MAX TEMP:   66;

#BEND 1SW       N/A         47  44  89  N1      N/A
#BEND-AWBREY    N/A         56  47  72  CALM    29.90S
#BEND-KIM LN    N/A         55  46  72  S2      30.03S
#CROOKED RVR RANN/A         54  46  74  CALM    29.89F
#CULVER         N/A         54  49  83  CALM    29.98S
#LAKE BILLY CHINN/A         56  34  43  S1      30.08F
#POWELL BUTTE 3EN/A         51  43  74  S3      N/A
#POWELL BUTTE   N/A         54  44  69  S2      29.67F
#PRINEVILLE 3N  N/A         48  44  86  E2      29.89S
#WARM SPRINGS   N/A         62  50  65  CALM    29.96R

$$


ORZ509-291310-
EAST SLOPES OF OREGON CASCADES

CITY            SKY/WX      TMP DP  RH  WIND    PRES   REMARKS
#CAMP SHERMAN   N/A         44  41  89  CALM    29.94S
#LA PINE 4NW    N/A         39  35  85  CALM    29.97F
#SISTERS AIRPOR N/A         46  46  100 CALM    30.17S
#SISTERS 1NW    N/A         47  42  83  N6      N/A
#SISTERS 3N     N/A         45  38  76  CALM    30.04S
#SUNRIVER       N/A         43  40  89  CALM    29.82F
#TUMALO 3W      N/A         62  45  54  SW2     29.77F

$$

ORZ044-291310-
LOWER COLUMBIA BASIN...OREGON

CITY            SKY/WX      TMP DP  RH  WIND    PRES   REMARKS
HERMISTON       MOCLDY      54  51  90  SE3     29.94S
6HR MIN TEMP:   53; 6HR MAX TEMP:   68;

#BOARDMAN SCHOOLN/A         56  51  83  CALM    29.96R
#ECHO 8SW       N/A         57  48  72  S3      29.95S
#IONE SCHOOL    N/A         57  41  55  CALM    29.93S
#IRRIGON 4NW    N/A         57  56  96  SE2     N/A
#UMATILLA SCHOOLN/A         55  55  100 S1      29.98S
#UMATILLA       N/A         61  51  70  CALM    29.86R
$$

ORZ507-291310-
NORTHERN FOOTHILLS OF THE BLUES

CITY            SKY/WX      TMP DP  RH  WIND    PRES   REMARKS
PENDLETON AIRPT PTCLDY      57  50  77  SE8     29.97R
6HR MIN TEMP:   57; 6HR MAX TEMP:   63;

#ADAMS 3WNW     N/A         53  49  86  CALM    29.92R
#ATHENA         N/A         63  50  62  SE1     29.93R
#CAYUSE         N/A         63  50  62  E6      29.91R
#HELIX SCHOOL   N/A         50  46  86  CALM    29.91S
#HELIX 3N       N/A         62  48  60  N3      29.95S
#HELIX 6SW      N/A         55  49  80  CALM    29.97R
#HOLDMAN 6E     N/A         57  48  72  CALM    29.72S
#M-F FERNDALE   N/A         55  49  80  CALM    29.95R
#M-F GROVE ELEM N/A         61  48  62  CALM    29.94R
#M-FREEWATER 5SEN/A         63  51  65  CALM    29.96R
#PENDLETON DNTN N/A         55  46  72  E2      29.96S
#PDT AQUATIC CTRN/A         56  44  64  CALM    29.98R
#PENDLETON 5NE  N/A         52  49  89  CALM    29.93S
#PDT SUNRIDGE   N/A         51  48  89  CALM    29.98R
#PENDLETON 7NW  N/A         54  48  80  CALM    29.88F
#PILOT ROCK     N/A         58  47  67  CALM    30.00R
#TUTUILLA       N/A         50  47  89  CALM    29.95R
#UMAPINE 2E     N/A         54  51  90  CALM    29.93R
#WESTON SCHOOL  N/A         67  45  45  SW1     29.93S

$$

ORZ508-291310-
SOUTHERN FOOTHILLS OF THE BLUES

CITY            SKY/WX      TMP DP  RH  WIND    PRES   REMARKS
#AJAX           N/A         63  40  43  CALM    29.93S
#CONDON SCHOOL  N/A         62  45  54  CALM    29.98S
#CONDON 5W      N/A         66  40  38  CALM    30.01S
#FOSSIL SCHOOL  N/A         51  45  80  CALM    29.97F
#HEPPNER EOC    N/A         60  46  60  SE5     29.85R
#HEPPNER 4NE    N/A         57  43  59  E2      29.90S
#LEXINGTON 2SE  N/A         60  46  60  CALM    29.96R
#RUGGS 5NE      N/A         56  42  59  CALM    30.20S
#RUGGS 2SW      N/A         62  45  54  SW7     29.92S

$$

ORZ502-503-291310-
BLUE MOUNTAINS

CITY            SKY/WX      TMP DP  RH  WIND    PRES   REMARKS
MEACHAM         PTCLDY      43  40  89  CALM    30.08S
6HR MIN TEMP:   43; 6HR MAX TEMP:   52;

#HEPPNER 15SE   N/A         49  43  80  CALM    29.99F
#LONG CREEK HS  N/A         49  46  89  CALM    30.03S
#PIKES PEAK     N/A         67  44  43  SW6     27.99S
#TOLLGATE       N/A         50  45  83  CALM    30.04S
#TROY SCHOOL    N/A         52  48  86  CALM    29.86R
#UKIAH          N/A         42  40  93  CALM    30.04S
#WESTON 4E      N/A         60  47  62  E7      29.86R
$$

ORZ505-291310-
JOHN DAY BASIN

CITY            SKY/WX      TMP DP  RH  WIND    PRES   REMARKS
JOHN DAY        PTCLDY      52  42  69  SE10    30.09F
#JOHN DAY KJDY  N/A         49  45  86  CALM    30.02R
#DAYVILLE SCHOOLN/A         53  43  69  CALM    30.03S
#MITCHELL       N/A         56  49  77  CALM    30.16F
#MONUMENT HS    N/A         50  45  83  CALM    30.05R
#MT. VERNON 5SE N/A         55  42  61  CALM    30.04F
$$

ORZ506-291310-
OCHOCO AND JOHN DAY HIGHLANDS

CITY            SKY/WX      TMP DP  RH  WIND    PRES   REMARKS
#PAULINA SCHOOL N/A         45  41  86  CALM    30.03F
#PINE MTN OBS   N/A         54  35  48  SE3     N/A
#PRAIRIE CITY   N/A         43  42  96  CALM    30.15R
#SENECA         N/A         42  N/A N/A CALM    N/A
#SENECA 9NW     N/A         37  35  92  CALM    30.00R
$$

ORZ049-291310-
GRANDE RONDE VALLEY

CITY            SKY/WX      TMP DP  RH  WIND    PRES   REMARKS
LA GRANDE       PTCLDY      48  36  63  CALM    30.06R
#COVE           N/A         50  48  93  N1      30.07R
#COVE SCHOOL    N/A         49  45  86  CALM    30.04R
#ELGIN 3N       N/A         47  43  86  CALM    30.05R
#ELGIN 1E       N/A         48  43  83  CALM    N/A
#ISLAND CITY 4N N/A         55  53  93  CALM    29.96S
#LA GRANDE ELEM N/A         51  46  83  CALM    30.09R
#UNION 1S       N/A         51  46  83  CALM    29.89S
$$

ORZ050-291310-
WALLOWA COUNTY

CITY            SKY/WX      TMP DP  RH  WIND    PRES   REMARKS
JOSEPH AIRPORT  N/A         46  43  89  CALM    30.12R
#ENTERPRISE HS  N/A         45  43  93  CALM    30.10R
#IMNAHA SCHOOL  N/A         52  49  89  S1      30.06R
#IMNAHA 10S     N/A         51  45  80  SW5     30.07R
#JOSEPH 3N      N/A         43  37  79  CALM    30.11S
#JOSEPH 3W      N/A         50  43  77  SW2     29.95S
#LOSTINE        N/A         44  42  93  CALM    29.79S
#MT HOWARD 8000 N/A         47  35  63  S5      30.27S
#PROMISE 1S     N/A         48  45  89  CALM    30.06F
#SHEEP RDG 7000 N/A         52  37  56  CALM    30.00F
#WALLOWA SCHOOL N/A         45  43  93  CALM    30.91R



$$



USA.gov is the U.S. government's official web portal to all federal, state and local government web resources and services.